| time (UTC) | temp F | wind direction | speed knots | gust knots | rain 1hr in | rain 24hr in | rain mn in | humidity % | barometer mb |
| 20260504141327 | 52 | 123 | 0.0 | 0.0 | 0.00 | 0.00 | 0.00 | 77 | 1010.3 |
| 20260504140157 | 51 | 118 | 0.0 | 0.0 | 0.00 | 0.00 | 0.00 | 77 | 1010.2 |
| 20260504130106 | 49 | 112 | 0.0 | 0.0 | 0.00 | 0.00 | 0.00 | 80 | 1009.7 |
| 20260504044744 | 64 | 146 | 0.0 | 0.0 | 0.00 | 0.00 | 0.00 | 47 | 1009.5 |
| 20260504043530 | 65 | 144 | 0.0 | 5.2 | 0.00 | 0.00 | 0.00 | 45 | 1009.5 |
| 20260504042341 | 66 | 136 | 0.0 | 4.3 | 0.00 | 0.00 | 0.00 | 43 | 1009.4 |
| 20260504041145 | 67 | 142 | 0.0 | 4.3 | 0.00 | 0.00 | 0.00 | 39 | 1009.4 |
| 20260504035919 | 68 | 121 | 0.0 | 0.0 | 0.00 | 0.00 | 0.00 | 38 | 1009.4 |
| 20260504034651 | 69 | 132 | 0.0 | 0.0 | 0.00 | 0.00 | 0.00 | 34 | 1009.3 |
| 20260504033511 | 70 | 132 | 0.0 | 0.0 | 0.00 | 0.00 | 0.00 | 32 | 1009.2 |
| 20260504032319 | 71 | 140 | 0.0 | 0.0 | 0.00 | 0.00 | 0.00 | 30 | 1009.1 |
| 20260504031142 | 72 | 252 | 0.0 | 0.0 | 0.00 | 0.00 | 0.00 | 32 | 1009.0 |
| 20260504025908 | 73 | 252 | 0.0 | 0.0 | 0.00 | 0.00 | 0.00 | 33 | 1009.0 |
| 20260504024641 | 75 | 252 | 0.0 | 0.0 | 0.00 | 0.00 | 0.00 | 29 | 1009.0 |
| 20260504023404 | 76 | 250 | 0.0 | 0.0 | 0.00 | 0.00 | 0.00 | 28 | 1009.0 |
| 20260504022128 | 76 | 263 | 0.0 | 0.0 | 0.00 | 0.00 | 0.00 | 27 | 1009.1 |
| 20260504020905 | 77 | 260 | 0.0 | 0.0 | 0.00 | 0.00 | 0.00 | 26 | 1009.2 |
| 20260504015625 | 77 | 279 | 0.0 | 0.0 | 0.00 | 0.00 | 0.00 | 25 | 1009.3 |
| 20260504014433 | 78 | 281 | 0.0 | 0.0 | 0.00 | 0.00 | 0.00 | 25 | 1009.4 |
| 20260504011859 | 78 | 267 | 0.0 | 0.0 | 0.00 | 0.00 | 0.00 | 25 | 1009.5 |
| 20260504005311 | 77 | 224 | 0.0 | 0.0 | 0.00 | 0.00 | 0.00 | 24 | 1009.7 |
| 20260504004053 | 77 | 237 | 0.0 | 0.0 | 0.00 | 0.00 | 0.00 | 24 | 1009.9 |
| 20260504002903 | 77 | 236 | 0.9 | 0.0 | 0.00 | 0.00 | 0.00 | 22 | 1010.0 |
| 20260504001719 | 77 | 199 | 0.9 | 8.7 | 0.00 | 0.00 | 0.00 | 24 | 1010.1 |
| 20260504000532 | 77 | 215 | 0.9 | 2.6 | 0.00 | 0.00 | 0.00 | 22 | 1010.2 |
| 20260503235253 | 77 | 214 | 0.0 | 8.7 | 0.00 | 0.00 | 0.00 | 22 | 1010.4 |
| 20260503234016 | 76 | 229 | 0.9 | 7.8 | 0.00 | 0.00 | 0.00 | 21 | 1010.5 |
| 20260503232758 | 76 | 213 | 0.0 | 6.1 | 0.00 | 0.00 | 0.00 | 24 | 1010.6 |
| 20260503231618 | 76 | 244 | 0.0 | 0.0 | 0.00 | 0.00 | 0.00 | 23 | 1010.9 |
| 20260503230436 | 76 | 203 | 0.0 | 7.8 | 0.00 | 0.00 | 0.00 | 24 | 1011.0 |
| 20260503223924 | 76 | 305 | 0.0 | 0.0 | 0.00 | 0.00 | 0.00 | 23 | 1011.4 |
| 20260503222722 | 76 | 257 | 0.0 | 2.6 | 0.00 | 0.00 | 0.00 | 23 | 1011.6 |
| 20260503221532 | 75 | 273 | 0.0 | 0.0 | 0.00 | 0.00 | 0.00 | 25 | 1011.6 |
| 20260503220317 | 75 | 216 | 0.9 | 9.6 | 0.00 | 0.00 | 0.00 | 25 | 1011.8 |
| 20260503215049 | 75 | 163 | 0.0 | 6.1 | 0.00 | 0.00 | 0.00 | 24 | 1012.1 |
| 20260503212537 | 74 | 140 | 0.0 | 0.0 | 0.00 | 0.00 | 0.00 | 28 | 1012.4 |
| 20260503211400 | 74 | 229 | 0.0 | 7.8 | 0.00 | 0.00 | 0.00 | 28 | 1012.6 |
| 20260503204808 | 73 | 242 | 0.0 | 0.0 | 0.00 | 0.00 | 0.00 | 33 | 1013.1 |
| 20260503203608 | 73 | 318 | 0.0 | 2.6 | 0.00 | 0.00 | 0.00 | 32 | 1013.2 |
| 20260503202346 | 72 | 317 | 0.0 | 0.9 | 0.00 | 0.00 | 0.00 | 36 | 1013.4 |
| 20260503201129 | 72 | 232 | 0.0 | 0.0 | 0.00 | 0.00 | 0.00 | 33 | 1013.5 |
| 20260503195933 | 72 | 234 | 0.0 | 5.2 | 0.00 | 0.00 | 0.00 | 35 | 1013.7 |
| 20260503194717 | 71 | 275 | 0.0 | 0.0 | 0.00 | 0.00 | 0.00 | 35 | 1013.8 |
| 20260503193502 | 71 | 199 | 0.0 | 4.3 | 0.00 | 0.00 | 0.00 | 34 | 1013.9 |
| 20260503192314 | 71 | 268 | 0.0 | 0.0 | 0.00 | 0.00 | 0.00 | 34 | 1014.1 |
| 20260503191059 | 70 | 334 | 0.0 | 0.0 | 0.00 | 0.00 | 0.00 | 37 | 1014.2 |
| 20260503184543 | 69 | 312 | 0.0 | 0.0 | 0.00 | 0.00 | 0.00 | 36 | 1014.3 |
| 20260503183337 | 69 | 259 | 0.0 | 0.0 | 0.00 | 0.00 | 0.00 | 36 | 1014.4 |
| 20260503182057 | 69 | 337 | 0.0 | 0.0 | 0.00 | 0.00 | 0.00 | 38 | 1014.6 |
| 20260503180832 | 68 | 333 | 0.0 | 0.0 | 0.00 | 0.00 | 0.00 | 40 | 1014.7 |
| 20260503175702 | 67 | 282 | 0.0 | 0.0 | 0.00 | 0.00 | 0.00 | 39 | 1014.8 |
| 20260503174454 | 66 | 42 | 0.0 | 0.0 | 0.00 | 0.00 | 0.00 | 42 | 1014.9 |
| 20260503173235 | 66 | 336 | 0.0 | 0.0 | 0.00 | 0.00 | 0.00 | 44 | 1014.9 |
| 20260503172027 | 65 | 355 | 0.0 | 0.0 | 0.00 | 0.00 | 0.00 | 48 | 1015.0 |
| 20260503170747 | 65 | 25 | 0.0 | 0.0 | 0.00 | 0.00 | 0.00 | 49 | 1015.2 |
| 20260503150447 | 56 | 120 | 0.0 | 0.0 | 0.00 | 0.00 | 0.00 | 70 | 1016.1 |